Location: Cheyres
(46.8153°N, 6.7877°E)
Time: 13:39:06
(UTC+00:00)

Cosmos 990 Rocket - Pass Details

Date: 26 September 2021
Orbit: 746 x 769 km, 74.0° (Epoch: 17 October)

Event Time Altitude Azimuth Distance (km) Brightness Sun altitude
Exits shadow 21:53:30 - 265° (W) 3,099 7.4 -40.7°
Reaches altitude 10° 21:57:12 10° 295° (WNW) 2,286 6.9 -41.0°
Maximum altitude 21:59:07 12° 317° (NW) 2,158 6.9 -41.2°
Drops below altitude 10° 22:01:03 10° 339° (NNW) 2,296 7.1 -41.3°
Sets 22:05:10 0° 10° (N) 3,233 7.8 -41.6°
